Darwin, CA

4:13 AM PST on February 11, 2016 (GMT -0800)
China Lake NAWS

Weather History for KNID - May, 2013

Change the Weather History Date:

Friday, May 17, 2013

  Actual Average Record
Temperature  
Mean Temperature 74 °F -  
Max Temperature 84 °F 85 °F 102 °F (2008)
Min Temperature 63 °F 58 °F 46 °F (2000)
Cooling Degree Days 8    
Growing Degree Days 24 (Base 50)    
Moisture  
Dew Point 37 °F    
Average Humidity 28    
Maximum Humidity 38    
Minimum Humidity 19    
Precipitation  
Precipitation 0.00 in - - ()
Sea Level Pressure  
Sea Level Pressure 29.75 in    
Wind  
Wind Speed 8 mph (SW)    
Max Wind Speed 20 mph    
Max Gust Speed 24 mph    
Visibility 10 miles    
Events      
Averages and records for this station are not official NWS values.
T = Trace of Precipitation, MM = Missing Value Source: NWS Daily Summary

Daily Weather History Graph

Daily Weather History Graph

Search for Another Location

Airport or City:

Trip Planner

Search our weather history database for the weather conditions in past years. The results will help you decide how hot, cold, wet, or windy it might be!

Date:

Astronomy

May. 17, 2013 Rise Set
Actual Time 5:43 AM PDT 7:50 PM PDT
Civil Twilight 5:15 AM PDT 8:19 PM PDT
Nautical Twilight 4:40 AM PDT 8:54 PM PDT
Astronomical Twilight 4:02 AM PDT 9:32 PM PDT
Moon 12:15 PM PDT (5/17) 12:51 AM PDT (5/17)
Length of Visible Light 15h 04m
Length of Day
14h 06m
Waxing Crescent, 46% of the Moon is Illuminated
May 17
Waxing Crescent
May 17
First Quarter
May 24
Full
May 31
Last Quarter
Jun 8
New

Hourly Weather History & Observations

Time (PDT) Temp. Dew Point Humidity Pressure Visibility Wind Dir Wind Speed Gust Speed Precip Events Conditions
12:56 AM 66.0 °F 37.9 °F 36% 29.71 in 10.0 mi West 9.2 mph - N/A   Clear
1:56 AM 64.9 °F 37.9 °F 37% 29.70 in 10.0 mi SSW 8.1 mph - N/A   Clear
2:56 AM 66.0 °F 39.0 °F 37% 29.70 in 10.0 mi WSW 10.4 mph - N/A   Clear
3:56 AM 66.0 °F 37.9 °F 36% 29.70 in 10.0 mi SW 6.9 mph - N/A   Clear
4:56 AM 64.0 °F 37.9 °F 38% 29.71 in 10.0 mi SSW 8.1 mph - N/A   Mostly Cloudy
5:56 AM 63.0 °F 37.0 °F 38% 29.73 in 10.0 mi SW 5.8 mph - N/A   Mostly Cloudy
6:56 AM 64.0 °F 37.9 °F 38% 29.76 in 10.0 mi South 4.6 mph - N/A   Mostly Cloudy
7:56 AM 69.1 °F 37.0 °F 31% 29.77 in 10.0 mi Calm Calm - N/A   Mostly Cloudy
8:56 AM 73.0 °F 37.0 °F 27% 29.78 in 10.0 mi NNE 3.5 mph - N/A   Mostly Cloudy
9:56 AM 75.9 °F 37.0 °F 24% 29.79 in 10.0 mi ENE 5.8 mph - N/A   Scattered Clouds
10:56 AM 77.0 °F 35.1 °F 22% 29.79 in 10.0 mi West 4.6 mph - N/A   Scattered Clouds
11:56 AM 79.0 °F 37.0 °F 22% 29.78 in 10.0 mi Variable 5.8 mph - N/A   Partly Cloudy
12:56 PM - - N/A% 29.81 in 10.0 mi Variable 6.9 mph - N/A   Partly Cloudy
1:56 PM 82.0 °F 36.0 °F 19% 29.75 in 10.0 mi Variable 5.8 mph - N/A   Partly Cloudy
2:56 PM 84.0 °F 37.9 °F 19% 29.72 in 10.0 mi South 15.0 mph 24.2 mph N/A   Partly Cloudy
3:56 PM 82.9 °F 37.9 °F 20% 29.71 in 10.0 mi SW 15.0 mph 20.7 mph N/A   Partly Cloudy
4:56 PM 82.0 °F 37.0 °F 20% 29.70 in 10.0 mi SW 10.4 mph 18.4 mph N/A   Partly Cloudy
5:56 PM 80.1 °F 37.9 °F 22% 29.70 in 10.0 mi West 19.6 mph 24.2 mph N/A   Partly Cloudy
6:56 PM 78.1 °F 36.0 °F 22% 29.73 in 10.0 mi WSW 15.0 mph - N/A   Partly Cloudy
7:56 PM 73.0 °F 37.0 °F 27% 29.73 in 10.0 mi WSW 12.7 mph - N/A   Clear
8:56 PM 70.0 °F 35.1 °F 28% 29.75 in 10.0 mi SSW 6.9 mph - N/A   Clear
9:56 PM 71.1 °F 34.0 °F 26% 29.77 in 10.0 mi SW 8.1 mph - N/A   Clear
10:56 PM 70.0 °F 33.1 °F 26% 29.79 in 10.0 mi SW 6.9 mph - N/A   Clear
11:56 PM 68.0 °F 34.0 °F 28% 29.80 in 10.0 mi Calm Calm - N/A   Clear